Regional Weather Roundup
Issued by NWS Wilmington, NC

Home | Current Version | Previous Version | Text Only | Print | Product List | Glossary On
Versions: 1 2 3 4 5 6 7 8 9 10 11 12 13 14 15 16 17 18 19 20 21 22 23 24 25 26 27 28 29 30 31 32 33 34 35 36 37 38 39 40 41 42 43 44 45 46 47 48 49 50
000
ASUS42 KILM 050813
RWRILM
RWRILM
REGIONAL HOURLY WEATHER ROUNDUP
NATIONAL WEATHER SERVICE WILMINGTON NC
400 AM EDT THU MAY 05 2016

NOTE: "FAIR" INDICATES FEW OR NO CLOUDS BELOW 12,000 FEET WITH NO
SIGNIFICANT WEATHER AND/OR OBSTRUCTIONS TO VISIBILITY.

...............WFO WILMINGTON COUNTY WARNING AREA...............

......COASTAL NC AND SC COUNTIES......

CITY           SKY/WX    TMP DP  RH WIND       PRES   REMARKS
WILMINGTON     PTCLDY    61  57  87 NW5       29.52F
N MYRTLE BEACH CLOUDY    59  50  72 W5        29.54F
MYRTLE BEACH   PTCLDY    59  46  63 W3        29.57F

......INLAND NC AND SC COUNTIES.......

CITY           SKY/WX    TMP DP  RH WIND       PRES   REMARKS
LUMBERTON      CLEAR     54  52  93 W3        29.53F
ELIZABETHTOWN  CLEAR     59  55  85 CALM      29.54F
WHITEVILLE     NOT AVBL
FLORENCE       MOCLDY    55  50  83 SW3       29.55F
DARLINGTON     PTCLDY    55  53  93 CALM      29.56S
KINGSTREE      FAIR      54  48  82 SW3       29.57S
HARTSVILLE     FAIR      52  46  82 W3        29.56S
BENNETTSVILLE  FAIR      57  55  94 CALM      29.54F
CONWAY         FAIR      52  52 100 CALM      29.55F
GEORGETOWN     FAIR      54  45  71 W5        29.57F
MARION         FAIR      55  50  82 W3        29.55F

....................REST OF NORTH CAROLINA......................

.........EASTERN NC.........

CITY           SKY/WX    TMP DP  RH WIND       PRES   REMARKS
CAPE HATTERAS  MOCLDY    58  56  93 NE8G17    29.52F
JACKSONVILLE   CLOUDY    63  63 100 NE5       29.53F FOG
MOREHEAD CITY  CLOUDY    63  61  93 NE8       29.53F
KENANSVILLE    CLOUDY    59  58  96 CALM      29.55F
NEW BERN       CLOUDY    61  59  93 E6        29.54F
ELIZABETH CITY FOG       53  53 100 N13       29.57F VSB 3/4

.........CENTRAL NC.........

CITY           SKY/WX    TMP DP  RH WIND       PRES   REMARKS
RALEIGH DURHAM PTCLDY    52  50  93 CALM      29.56F
ROCKY MOUNT    CLOUDY    59  58  96 NE6       29.55F
ROANOKE RAPIDS NOT AVBL
FAYETTEVILLE   CLEAR     57  52  83 CALM      29.53F
HOFFMAN        CLEAR     52  51  97 E1        29.54F

.........WESTERN NC.........

CITY           SKY/WX    TMP DP  RH WIND       PRES   REMARKS
CHARLOTTE      MOCLDY    56  46  69 N6        29.59F
GREENSBORO     CLOUDY    56  45  66 N5        29.58F
HICKORY        NOT AVBL
BOONE          NOT AVBL
ASHEVILLE      NOT AVBL

.....................REST OF SOUTH CAROLINA.....................

.........EASTERN SC.........

CITY           SKY/WX    TMP DP  RH WIND       PRES   REMARKS
CHARLESTON     CLEAR     59  48  67 W8        29.59F
BEAUFORT MCAS  CLEAR     60  48  64 W7        29.62F
HILTON HEAD    CLEAR     63  48  59 NW7       29.64S

.........CENTRAL SC.........

CITY           SKY/WX    TMP DP  RH WIND       PRES   REMARKS
COLUMBIA       PTCLDY    58  47  66 W6        29.58F
ORANGEBURG     PTCLDY    58  46  64 W6        29.59F
SUMTER SHAW    PTCLDY    56  47  71 W10       29.54F

.........WESTERN SC.........

CITY           SKY/WX    TMP DP  RH WIND       PRES   REMARKS
GREENVILLE     NOT AVBL
ROCK HILL      CLOUDY    55  47  74 N7        29.58F
ANDERSON       CLEAR     52  43  71 W10       29.64S
CLEMSON        NOT AVBL
GREENWOOD      CLEAR     52  45  77 W6        29.63F


...................COASTAL AND OFFSHORE REPORTS..................

................LOCAL PIERS AND NC RESERVE................


STATION/POSITION TIME  SKY/WX   TEMP    WIND        PRES    VSBY
                                AIR SEA DIR/SP/G
                 (UTC)          (F)     (DEG/KT/KT) (MB)    (MI)
JOHNY MRCER PIER 0700            64 69  350/  6/  7  999.7F
NC RESRV MASNBRO NOT AVBL
OCEAN CREST PIER NOT AVBL
SPRINGMAID  PIER 0700            62 70  290/  5/  7 1000.6F


................COASTAL AND OFFSHORE BUOYS................


STATION/POSITION TIME  SKY/WX   TEMP    WIND        PRES    VSBY
                                AIR SEA DIR/SP/G
                 (UTC)          (F)     (DEG/KT/KT) (MB)    (MI)
DIMNDSHOAL 41025 0750            62 70   20/ 17/ 19  999.3F
WVE H/P(F/S)=  4/ 7 SWL H/P/D(F/S/D)=  2/160/ 7

CAPE LOOKOUT     0800            63      40/ 14/ 15  999.1F
ONSLOW BAY 41036 NOT AVBL
ONSLOW BAY 41064 NOT AVBL
ONSLOW BAY 41159 0725               72                N/A
WVE H/P(F/S)=  4/ 6

5SE WRITBC 41038 0708            66 69  350/ 10/ 14 1000.9F
MASNBO INL 41110 0706               69                N/A
WVE H/P(F/S)=  2/ 6

WILM HARBR 41108 0726               70                N/A
WVE H/P(F/S)=  3/ 6

27SE WRITB 41037 0708            70 72   50/ 10/ 16  999.3F
FRYING PAN 41013 0700            69 71  300/ 14/ 16  999.8F
SUNST NRSH 41024 0708            65 70  320/ 10/ 14 1000.2F
CAPRS NRSH 41029 0708            66 70  300/ 12/ 16 1001.5F
EDISTO     41004 0750            70 74  310/ 16/ 19 1001.0F
WVE H/P(F/S)=  4/ 5 SWL H/P/D(F/S/D)=  2/ 9



..........OFFSHORE BUOYS BEYOND 100 NM OFFSHORE...........
.....IN A TRIANGLE---HAT TO BERMUDA TO BAHAMAS TO HAT.....


STATION/POSITION TIME  SKY/WX   TEMP    WIND        PRES    VSBY
                                AIR SEA DIR/SP/G
                 (UTC)          (F)     (DEG/KT/KT) (MB)    (MI)
150E HAT   41001 NOT AVBL
W BERMUDA  41048 0750            70 70  160/ 17/ 19 1004.8F
WVE H/P(F/S)=  5/ 7 SWL H/P/D(F/S/D)=  3/110/ 9

ATLANTIC S 41049 0750            76 76  150/ 16/ 17 1016.1
WVE H/P(F/S)=  4/ 9 SWL H/P/D(F/S/D)=  2/ 60/ 9

E BAHAMAS  41046 0750            79 79  160/ 19/ 23 1012.2F
WVE H/P(F/S)=  5/ 6 SWL H/P/D(F/S/D)=  2/ 70/ 9

NE BAHAMAS 41047 0750            77 76  180/ 19/ 21 1006.6F
WVE H/P(F/S)=  5/ 6 SWL H/P/D(F/S/D)=  2/ 80/ 9

120E CANVRL41010 0720            72 78  330/ 17/ 21 1001.0R

END



USA.gov is the U.S. government's official web portal to all federal, state and local government web resources and services.